| time (UTC) | temp F | wind direction | speed knots | gust knots | rain 1hr in | rain 24hr in | rain mn in | humidity % | barometer mb |
| 20260505001517 | 51 | 294 | 1.7 | 5.2 | 0.00 | 0.00 | 0.00 | 48 | 1013.7 |
| 20260505000021 | 51 | 325 | 1.7 | 7.0 | 0.00 | 0.00 | 0.00 | 48 | 1013.6 |
| 20260504234524 | 51 | 312 | 2.6 | 10.4 | 0.00 | 0.00 | 0.00 | 48 | 1013.5 |
| 20260504233008 | 52 | 301 | 6.1 | 10.4 | 0.00 | 0.00 | 0.00 | 45 | 1013.3 |
| 20260504231514 | 52 | 256 | 7.8 | 12.2 | 0.00 | 0.00 | 0.00 | 48 | 1013.2 |
| 20260504230018 | 52 | 275 | 2.6 | 6.1 | 0.00 | 0.00 | 0.00 | 49 | 1013.3 |
| 20260504224524 | 52 | 229 | 2.6 | 7.0 | 0.00 | 0.00 | 0.00 | 49 | 1013.3 |
| 20260504223034 | 54 | 209 | 2.6 | 6.1 | 0.00 | 0.00 | 0.00 | 46 | 1013.3 |
| 20260504221512 | 56 | 272 | 1.7 | 10.4 | 0.00 | 0.00 | 0.00 | 42 | 1013.3 |
| 20260504220021 | 54 | 258 | 4.3 | 7.0 | 0.00 | 0.00 | 0.00 | 52 | 1013.5 |
| 20260504214520 | 53 | 284 | 1.7 | 3.5 | 0.00 | 0.00 | 0.00 | 50 | 1013.7 |
| 20260504213024 | 53 | 290 | 2.6 | 5.2 | 0.00 | 0.00 | 0.00 | 50 | 1013.7 |
| 20260504211529 | 53 | 314 | 0.9 | 2.6 | 0.00 | 0.00 | 0.00 | 48 | 1013.7 |
| 20260504210013 | 52 | 331 | 1.7 | 5.2 | 0.00 | 0.00 | 0.00 | 50 | 1013.7 |
| 20260504204541 | 52 | 348 | 1.7 | 3.5 | 0.00 | 0.00 | 0.00 | 50 | 1013.8 |
| 20260504203029 | 52 | 348 | 1.7 | 5.2 | 0.00 | 0.00 | 0.00 | 49 | 1013.7 |
| 20260504201526 | 53 | 352 | 1.7 | 6.1 | 0.00 | 0.00 | 0.00 | 47 | 1013.6 |
| 20260504200029 | 53 | 254 | 1.7 | 3.5 | 0.00 | 0.00 | 0.00 | 48 | 1013.7 |
| 20260504194516 | 53 | 221 | 1.7 | 4.3 | 0.00 | 0.00 | 0.00 | 45 | 1013.7 |
| 20260504193021 | 54 | 269 | 1.7 | 6.1 | 0.00 | 0.00 | 0.00 | 44 | 1013.8 |
| 20260504191525 | 55 | 32 | 1.7 | 7.0 | 0.00 | 0.00 | 0.00 | 44 | 1014.0 |
| 20260504190036 | 54 | 26 | 0.9 | 4.3 | 0.00 | 0.00 | 0.00 | 44 | 1014.0 |
| 20260504184535 | 54 | 245 | 1.7 | 7.0 | 0.00 | 0.00 | 0.00 | 44 | 1014.1 |
| 20260504183022 | 53 | 182 | 4.3 | 8.7 | 0.00 | 0.00 | 0.00 | 46 | 1014.2 |
| 20260504181524 | 53 | 90 | 1.7 | 6.1 | 0.00 | 0.00 | 0.00 | 49 | 1014.3 |
| 20260504180008 | 51 | 209 | 2.6 | 7.8 | 0.00 | 0.00 | 0.00 | 45 | 1014.5 |
| 20260504174513 | 52 | 126 | 2.6 | 10.4 | 0.00 | 0.00 | 0.00 | 46 | 1014.6 |
| 20260504173016 | 51 | 296 | 1.7 | 8.7 | 0.00 | 0.00 | 0.00 | 47 | 1014.6 |
| 20260504171528 | 51 | 108 | 0.9 | 7.8 | 0.00 | 0.00 | 0.00 | 46 | 1014.7 |
| 20260504081537 | 52 | 106 | 1.7 | 3.5 | 0.00 | 0.00 | 0.00 | 38 | 1011.4 |
| 20260504050022 | 54 | 123 | 3.5 | 6.1 | 0.00 | 0.00 | 0.00 | 40 | 1011.6 |
| 20260504044526 | 54 | 153 | 4.3 | 6.1 | 0.00 | 0.00 | 0.00 | 38 | 1011.5 |
| 20260504043008 | 54 | 173 | 3.5 | 5.2 | 0.00 | 0.00 | 0.00 | 39 | 1011.3 |
| 20260504041514 | 57 | 202 | 0.9 | 2.6 | 0.00 | 0.00 | 0.00 | 33 | 1011.2 |
| 20260504040022 | 57 | 85 | 0.0 | 1.7 | 0.00 | 0.00 | 0.00 | 33 | 1010.9 |
| 20260504034520 | 57 | 67 | 0.9 | 1.7 | 0.00 | 0.00 | 0.00 | 35 | 1010.6 |
| 20260504033026 | 57 | 56 | 0.0 | 1.7 | 0.00 | 0.00 | 0.00 | 34 | 1010.4 |
| 20260504031531 | 57 | 71 | 0.9 | 4.3 | 0.00 | 0.00 | 0.00 | 34 | 1010.3 |
| 20260504030025 | 57 | 13 | 0.0 | 3.5 | 0.00 | 0.00 | 0.00 | 34 | 1010.2 |
| 20260504024533 | 58 | 75 | 0.9 | 2.6 | 0.00 | 0.00 | 0.00 | 36 | 1010.1 |
| 20260504023025 | 61 | 19 | 0.0 | 2.6 | 0.00 | 0.00 | 0.00 | 36 | 1010.2 |
| 20260504021527 | 63 | 344 | 0.0 | 1.7 | 0.00 | 0.00 | 0.00 | 34 | 1010.1 |
| 20260504020014 | 65 | 59 | 0.9 | 4.3 | 0.00 | 0.00 | 0.00 | 36 | 1010.2 |
| 20260504014530 | 67 | 19 | 0.0 | 0.0 | 0.00 | 0.00 | 0.00 | 30 | 1010.2 |
| 20260504013034 | 69 | 5 | 0.0 | 1.7 | 0.00 | 0.00 | 0.00 | 30 | 1010.3 |
| 20260504011526 | 70 | 360 | 0.9 | 2.6 | 0.00 | 0.00 | 0.00 | 24 | 1010.4 |
| 20260504010028 | 70 | 352 | 0.9 | 3.5 | 0.00 | 0.00 | 0.00 | 26 | 1010.6 |
| 20260504004517 | 70 | 325 | 0.0 | 3.5 | 0.00 | 0.00 | 0.00 | 25 | 1010.7 |
| 20260504003021 | 69 | 281 | 1.7 | 7.8 | 0.00 | 0.00 | 0.00 | 27 | 1010.8 |